Back to catalog

SAMSAT-ION

AliveScienceSSO
NORAD 57168·PAYLOAD·🇷🇺 Russia
This satellite name has not been confirmed by official sources yet.

Launched Jun 27, 2023 from Vostochny Cosmodrome

Loading…

Next Passes (next 24 hours)

TLE

FreshSource: Space-Track

Epoch: Sep 14, 2026, 14:22 UTC

1 57168U 23091C   26257.59863686  .00007380  00000-0  27358-3 0  9991
2 57168  97.4932 320.3716 0011836 145.4278 214.7733 15.27859384177908

Track SAMSAT-ION in real time with AllMySat

Download on the App Store